[[{"header":{"parameterUnit":"m.s-1","parameterCategory":1,"la1":30.2991,"la2":30.254,"lo1":-89.0895,"lo2":-89.0444,"dy":0.0017,"dx":0.0017,"nx":28,"ny":28,"refTime":"2023-04-05T15:00:00:Z","depth":0,"parameterNumber":2,"parameterNumberName":"U-component_of_WINDS"},"data":[0,0,0,0,0,0,0,0,0,0,0,0,0,0,0,0,0,0,0,0,0,0,0,0,0,0,0,0,0,0,0,0,0,0,0,0,0,0,0,0,0,0,0,0,0,0,0,0,0,0,0,0,0,0,0,0,0,0,-3.289,-3.289,0,-3.2897,-3.2897,-3.2897,-3.2801,-3.2798,-3.2795,-3.2793,-3.2801,-3.2804,-3.2806,0,0,0,0,0,0,0,0,0,0,0,0,0,-3.2797,-3.28,-3.289,-3.289,-3.2891,-3.2897,-3.2897,-3.2897,-3.2801,-3.2798,-3.2795,-3.2792,-3.28,-3.2804,-3.2807,0,0,0,0,0,0,0,0,0,0,0,0,0,-3.2824,-3.28,-3.289,-3.2843,-3.2839,-3.2897,-3.2897,-3.2897,-3.2802,-3.2798,-3.2794,-3.279,-3.2799,-3.2803,-3.2807,-3.291,0,0,-3.2819,-3.2821,0,0,0,0,0,0,0,0,-3.2823,-3.2828,-3.285,-3.2847,-3.2842,-3.2844,-3.2867,-3.2902,-3.2803,-3.2816,-3.2793,-3.2788,-3.2819,-3.2821,-3.2831,-3.2911,-3.2911,-3.282,-3.2822,-3.2824,-3.2825,0,0,0,0,0,0,0,-3.2821,-3.2827,-3.2893,-3.2851,-3.2846,-3.2823,-3.2822,-3.2873,-3.2839,-3.2815,-3.2808,-3.281,-3.2816,-3.2827,-3.283,-3.2911,-3.282,-3.2823,-3.2826,-3.2827,-3.3078,-3.3082,0,0,0,0,0,0,-3.2825,-3.2826,-3.2893,-3.2893,-3.2823,-3.2828,-3.2827,-3.2847,-3.2839,-3.2833,-3.2813,-3.2805,-3.2822,-3.2826,-3.283,-3.2951,-3.2824,-3.2828,-3.283,-3.3073,-3.3078,-3.3083,0,0,0,0,0,0,-3.2824,-3.2832,-3.2892,-3.2858,-3.2864,-3.2833,-3.2857,-3.2849,-3.2861,-3.2837,-3.2831,-3.2831,-3.2819,-3.2825,-3.2891,-3.295,-3.2829,-3.2833,-3.3068,-3.3075,-3.3081,-3.3193,0,0,0,0,0,0,-3.2822,-3.2832,-3.2871,-3.2859,-3.2866,-3.2953,-3.286,-3.2852,-3.2868,-3.2857,-3.2852,-3.2848,-3.2817,-3.2886,-3.2895,-3.2953,-3.2836,-3.3063,-3.3071,-3.3079,-3.3184,-3.3203,-3.3219,0,0,0,0,0,-3.2819,-3.2902,-3.2873,-3.2882,-3.2913,-3.2957,-3.296,-3.2923,-3.2873,-3.2911,-3.2897,-3.2848,-3.2942,-3.2893,-3.2903,-3.2963,-3.3059,-3.3069,-3.3078,-3.3177,-3.3199,-3.3218,0,0,0,0,0,0,-3.2922,-3.29,-3.2867,-3.295,-3.2956,-3.294,-3.2988,-3.2948,-3.2968,-3.2958,-3.2911,-3.291,-3.2985,-3.2981,-3.2927,-3.3063,-3.2992,-3.3004,-3.3063,-3.3085,-3.3102,-3.3101,-3.2839,0,0,0,0,0,-3.2954,-3.2991,-3.297,-3.3045,-3.3049,-3.3019,-3.3036,-3.3006,-3.3011,-3.3013,-3.3003,-3.301,-3.3041,-3.3063,-3.309,-3.3183,-3.3181,-3.323,-3.3247,-3.3261,-3.3272,-3.3322,-3.3343,-3.3115,-3.3114,-3.3114,0,0,-3.3021,-3.3014,-3.304,-3.3065,-3.3066,-3.3106,-3.3021,-3.3066,-3.3096,-3.302,-3.3082,-3.3076,-3.308,-3.3161,-3.3196,-3.316,-3.3335,-3.3273,-3.3285,-3.3288,-3.3334,-3.3356,-3.3375,-3.3121,-3.312,-3.3119,0,0,-3.3164,-3.3162,-3.3224,-3.3227,-3.323,-3.3209,-3.3224,-3.3215,-3.3207,-3.3269,-3.3213,-3.3248,-3.3302,-3.3308,-3.3318,-3.3465,-3.3421,-3.3475,-3.3565,-3.3614,-3.3632,-3.3648,-3.37,-3.372,-3.3486,-3.3486,-3.3486,0,-3.3247,-3.3304,-3.3261,-3.331,-3.3324,-3.3257,-3.332,-3.3325,-3.3338,-3.3349,-3.3308,-3.3375,-3.3373,-3.3455,-3.3491,-3.3501,-3.3518,-3.3475,-3.3633,-3.3648,-3.3662,-3.3712,-3.3732,-3.3493,-3.3492,-3.3491,-3.3491,0,-3.3406,-3.3447,-3.3497,-3.351,-3.3529,-3.3585,-3.3552,-3.3576,-3.3545,-3.3529,-3.3594,-3.359,-3.3615,-3.3632,-3.3603,-3.371,-3.3688,-3.3641,-3.3568,-3.3691,-3.3737,-3.3756,-3.3502,-3.35,-3.3498,-3.3496,0,0,-3.3613,-3.3602,-3.3622,-3.3627,-3.3626,-3.3657,-3.371,-3.3735,-3.3757,-3.3768,-3.3812,-3.3861,-3.3817,-3.3829,-3.38,-3.3843,-3.396,-3.379,-3.379,-3.3822,-3.4079,-3.4114,-3.4137,-3.3931,-3.3934,-3.3937,-3.4078,0,-3.3752,-3.3842,-3.3806,-3.39,-3.3937,-3.3875,-3.3922,-3.3927,-3.3914,-3.3944,-3.3929,-3.3964,-3.3904,-3.3911,-3.3951,-3.3937,-3.4011,-3.3926,-3.3972,-3.3974,-3.3973,-3.4161,-3.4198,-3.4332,-3.4096,-3.4099,-3.4101,0,-3.3926,-3.3944,-3.4041,-3.4034,-3.4048,-3.4091,-3.4111,-3.4141,-3.4146,-3.4133,-3.4147,-3.4108,-3.4161,-3.4089,-3.4162,-3.4105,-3.4122,-3.4119,-3.4123,-3.4125,-3.4045,-3.4169,-3.4374,-3.4394,-3.4129,-3.4127,-3.4125,0,-3.4068,-3.4116,-3.4181,-3.4187,-3.418,-3.4212,-3.4211,-3.4212,-3.4229,-3.4247,-3.4258,-3.4283,-3.4296,-3.4316,-3.4286,-3.4236,-3.4363,-3.4288,-3.4355,-3.4356,-3.4384,-3.4383,-3.4595,-3.4395,-3.4395,-3.4395,-3.4394,0,-3.4226,-3.4289,-3.4244,-3.4284,-3.4352,-3.4311,-3.438,-3.4372,-3.4373,-3.4411,-3.4359,-3.4396,-3.4353,-3.4386,-3.4363,-3.4427,-3.4434,-3.4425,-3.4418,-3.443,-3.4431,-3.444,-3.443,-3.44,-3.4399,-3.4398,-3.4397,0,-3.4396,-3.4369,-3.4435,-3.4424,-3.4422,-3.4473,-3.4463,-3.45,-3.4484,-3.4532,-3.4541,-3.4515,-3.4552,-3.4523,-3.4559,-3.4543,-3.4628,-3.4608,-3.4627,-3.4621,-3.4689,-3.4684,-3.4915,-3.4943,-3.4726,-3.4728,-3.4729,0,-3.4499,-3.4546,-3.4539,-3.456,-3.4562,-3.4598,-3.4615,-3.4577,-3.4597,-3.4607,-3.4643,-3.4675,-3.4698,-3.4759,-3.4744,-3.4771,-3.4751,-3.483,-3.4755,-3.4766,-3.4753,-3.475,-3.4755,-3.4846,-3.4848,-3.485,-3.4852,0,-3.4685,-3.467,-3.4697,-3.472,-3.4742,-3.4759,-3.4771,-3.4791,-3.4752,-3.4778,-3.4814,-3.4833,-3.4869,-3.4902,-3.4924,-3.4923,-3.4882,-3.4876,-3.4893,-3.4905,-3.4914,-3.4911,-3.4669,-3.4871,-3.4869,-3.4868,-3.4867,-3.4866,-3.4825,-3.4864,-3.4865,-3.4897,-3.4902,-3.4915,-3.495,-3.4937,-3.4967,-3.4993,-3.4969,-3.5013,-3.5017,-3.5042,-3.5047,-3.5082,-3.5049,-3.5073,-3.5079,-3.5086,-3.5096,-3.4909,-3.5085,-3.5085,-3.5084,-3.5084,-3.5083,0,-3.5009,-3.5007,-3.5037,-3.5055,-3.5081,-3.5039,-3.5051,-3.5076,-3.5115,-3.5122,-3.5146,-3.5189,-3.522,-3.5208,-3.5236,-3.5266,-3.5248,-3.5274,-3.5272,-3.5273,-3.5123,-3.5106,-3.5289,-3.5289,-3.5289,-3.5289,-3.5289,-3.5289,-3.5107,-3.517,-3.5155,-3.5221,-3.5219,-3.5261,-3.5271,-3.5283,-3.5289,-3.5338,-3.5364,-3.5356,-3.5356,-3.5383,-3.5411,-3.5406,-3.5419,-3.5453,-3.5442,-3.5303,-3.5283,-3.5264,-3.5247,-3.5456,-3.5457,-3.5588,-3.5589,-3.559]},{"header":{"parameterUnit":"m.s-1","parameterCategory":1,"la1":30.2991,"la2":30.254,"lo1":-89.0895,"lo2":-89.0444,"dy":0.0017,"dx":0.0017,"nx":28,"ny":28,"refTime":"2023-04-05T15:00:00:Z","depth":0,"parameterNumber":3,"parameterNumberName":"V-component_of_WINDS"},"data":[0,0,0,0,0,0,0,0,0,0,0,0,0,0,0,0,0,0,0,0,0,0,0,0,0,0,0,0,0,0,0,0,0,0,0,0,0,0,0,0,0,0,0,0,0,0,0,0,0,0,0,0,0,0,0,0,0,0,-0.3245,-0.3245,0,-0.3188,-0.3188,-0.3187,-0.3157,-0.3157,-0.3157,-0.3157,-0.3097,-0.3095,-0.3093,0,0,0,0,0,0,0,0,0,0,0,0,0,-0.3326,-0.3325,-0.3246,-0.3245,-0.3244,-0.3188,-0.3187,-0.3187,-0.3158,-0.3157,-0.3157,-0.3157,-0.3097,-0.3095,-0.3093,0,0,0,0,0,0,0,0,0,0,0,0,0,-0.3282,-0.3324,-0.3246,-0.3223,-0.322,-0.3188,-0.3187,-0.3186,-0.3158,-0.3157,-0.3157,-0.3157,-0.3098,-0.3095,-0.3093,-0.3079,0,0,-0.3086,-0.3085,0,0,0,0,0,0,0,0,-0.3285,-0.3279,-0.3227,-0.3224,-0.3221,-0.318,-0.3194,-0.315,-0.3158,-0.3181,-0.3157,-0.3157,-0.3124,-0.312,-0.3109,-0.3076,-0.3073,-0.3085,-0.3084,-0.3083,-0.3082,0,0,0,0,0,0,0,-0.3288,-0.3282,-0.3223,-0.3226,-0.3223,-0.3214,-0.3208,-0.3185,-0.3154,-0.3179,-0.3177,-0.3171,-0.3123,-0.3111,-0.3107,-0.3072,-0.3085,-0.3083,-0.3082,-0.3081,-0.3022,-0.3022,0,0,0,0,0,0,-0.3295,-0.3284,-0.3225,-0.3221,-0.3254,-0.3213,-0.3206,-0.3193,-0.3154,-0.3148,-0.3171,-0.317,-0.3115,-0.311,-0.3105,-0.3084,-0.3083,-0.3081,-0.3079,-0.3023,-0.3022,-0.3022,0,0,0,0,0,0,-0.3297,-0.329,-0.3227,-0.3252,-0.3243,-0.3212,-0.3198,-0.3192,-0.3181,-0.3147,-0.3141,-0.3165,-0.3115,-0.3108,-0.3085,-0.3082,-0.308,-0.3077,-0.3023,-0.3023,-0.3022,-0.3044,0,0,0,0,0,0,-0.3299,-0.3291,-0.3286,-0.3252,-0.3242,-0.3209,-0.3197,-0.3191,-0.3177,-0.3175,-0.3141,-0.3135,-0.3115,-0.3089,-0.3083,-0.3079,-0.3076,-0.3023,-0.3023,-0.3022,-0.3044,-0.3045,-0.3046,0,0,0,0,0,-0.3302,-0.3295,-0.3286,-0.3279,-0.3236,-0.3209,-0.3203,-0.3181,-0.3177,-0.3171,-0.3149,-0.3136,-0.3083,-0.3087,-0.308,-0.3075,-0.3023,-0.3023,-0.3022,-0.3043,-0.3044,-0.3046,0,0,0,0,0,0,-0.3329,-0.329,-0.328,-0.3261,-0.3239,-0.3204,-0.3197,-0.3183,-0.3161,-0.316,-0.3132,-0.3125,-0.3104,-0.3087,-0.3091,-0.3058,-0.3052,-0.305,-0.307,-0.3071,-0.3072,-0.3076,-0.3074,0,0,0,0,0,-0.3332,-0.3315,-0.3282,-0.3268,-0.3257,-0.3229,-0.3217,-0.3201,-0.3176,-0.3167,-0.3143,-0.3119,-0.3097,-0.3083,-0.3061,-0.3041,-0.3032,-0.3034,-0.3035,-0.3036,-0.3034,-0.3021,-0.3021,-0.3022,-0.3022,-0.3022,0,0,-0.334,-0.3316,-0.3307,-0.3273,-0.3254,-0.3235,-0.3221,-0.3203,-0.3188,-0.3164,-0.314,-0.3122,-0.3093,-0.3071,-0.306,-0.3056,-0.3032,-0.3035,-0.3037,-0.3035,-0.302,-0.302,-0.302,-0.3021,-0.3021,-0.3021,0,0,-0.3344,-0.3325,-0.3311,-0.3292,-0.3263,-0.3243,-0.324,-0.3207,-0.3194,-0.317,-0.3151,-0.3133,-0.3096,-0.3075,-0.306,-0.3054,-0.304,-0.3047,-0.3053,-0.304,-0.304,-0.3039,-0.3036,-0.3035,-0.3046,-0.3046,-0.3046,0,-0.3357,-0.3329,-0.3305,-0.3287,-0.3272,-0.3249,-0.3233,-0.3216,-0.3181,-0.317,-0.3166,-0.3118,-0.3097,-0.3069,-0.3067,-0.3056,-0.305,-0.3051,-0.3042,-0.3041,-0.3041,-0.3037,-0.3036,-0.3047,-0.3047,-0.3047,-0.3047,0,-0.3345,-0.3326,-0.3318,-0.3285,-0.3268,-0.3252,-0.3224,-0.321,-0.3196,-0.3176,-0.3151,-0.3125,-0.3096,-0.3088,-0.3074,-0.3058,-0.3056,-0.3047,-0.3041,-0.3042,-0.3038,-0.3036,-0.3049,-0.3048,-0.3048,-0.3048,0,0,-0.3366,-0.3318,-0.3316,-0.33,-0.3265,-0.3249,-0.323,-0.3203,-0.319,-0.3167,-0.3149,-0.3117,-0.3108,-0.3091,-0.3074,-0.3063,-0.3057,-0.3055,-0.3054,-0.3055,-0.3036,-0.3042,-0.3041,-0.3048,-0.3048,-0.3047,-0.3038,0,-0.3364,-0.3331,-0.3308,-0.3283,-0.3264,-0.324,-0.3224,-0.32,-0.3181,-0.3161,-0.3139,-0.3117,-0.3107,-0.3097,-0.3084,-0.3061,-0.3053,-0.3061,-0.303,-0.3029,-0.3038,-0.3039,-0.3046,-0.3039,-0.3036,-0.3036,-0.3036,0,-0.3358,-0.3335,-0.3308,-0.3274,-0.3265,-0.3251,-0.3222,-0.3204,-0.3175,-0.3162,-0.3142,-0.3124,-0.3101,-0.3096,-0.3064,-0.307,-0.3056,-0.3042,-0.3041,-0.3037,-0.3033,-0.3034,-0.3036,-0.3034,-0.3033,-0.3033,-0.3034,0,-0.3375,-0.3336,-0.3315,-0.3302,-0.3262,-0.3252,-0.3234,-0.3206,-0.319,-0.3164,-0.3153,-0.3126,-0.3111,-0.3089,-0.3063,-0.3062,-0.3033,-0.3026,-0.302,-0.302,-0.3015,-0.3015,-0.3013,-0.3007,-0.3007,-0.3007,-0.3007,0,-0.3375,-0.3359,-0.3321,-0.3308,-0.3289,-0.3262,-0.3243,-0.3224,-0.3198,-0.318,-0.3157,-0.314,-0.3108,-0.3086,-0.3065,-0.3041,-0.3034,-0.3022,-0.3016,-0.3023,-0.3025,-0.3014,-0.3013,-0.3006,-0.3006,-0.3006,-0.3007,0,-0.339,-0.3365,-0.3339,-0.3303,-0.3293,-0.328,-0.3248,-0.3234,-0.3213,-0.3189,-0.3182,-0.3149,-0.3122,-0.3094,-0.3058,-0.3044,-0.3019,-0.3012,-0.3029,-0.3026,-0.3021,-0.3021,-0.3011,-0.3007,-0.3004,-0.3004,-0.3004,0,-0.3393,-0.338,-0.3341,-0.3327,-0.331,-0.3289,-0.3272,-0.3244,-0.3227,-0.3193,-0.3182,-0.3153,-0.3129,-0.3086,-0.3058,-0.3029,-0.3021,-0.3019,-0.3017,-0.3023,-0.302,-0.302,-0.3018,-0.302,-0.3021,-0.3021,-0.3021,0,-0.3398,-0.3386,-0.3363,-0.3335,-0.3316,-0.3293,-0.3268,-0.3258,-0.3225,-0.3207,-0.3179,-0.316,-0.3122,-0.3093,-0.3061,-0.3041,-0.3025,-0.3022,-0.3018,-0.3025,-0.3035,-0.3029,-0.3031,-0.3022,-0.3022,-0.3022,-0.3022,-0.3022,-0.3406,-0.3393,-0.3364,-0.3338,-0.3317,-0.3294,-0.3278,-0.3255,-0.3231,-0.3199,-0.3183,-0.3155,-0.3124,-0.3079,-0.306,-0.3036,-0.3032,-0.3027,-0.3026,-0.3025,-0.3026,-0.3039,-0.303,-0.303,-0.303,-0.303,-0.303,0,-0.341,-0.339,-0.3367,-0.3333,-0.3313,-0.3299,-0.3271,-0.3255,-0.323,-0.3203,-0.3179,-0.3146,-0.3118,-0.3087,-0.3056,-0.3043,-0.3034,-0.3035,-0.3036,-0.3031,-0.3033,-0.3038,-0.3043,-0.3043,-0.3043,-0.3043,-0.3043,-0.3043,-0.341,-0.3386,-0.337,-0.3334,-0.3313,-0.3286,-0.3271,-0.3249,-0.3227,-0.3191,-0.3167,-0.3148,-0.3118,-0.3085,-0.3057,-0.3049,-0.3038,-0.3041,-0.303,-0.3032,-0.3031,-0.303,-0.3035,-0.3039,-0.3039,-0.303,-0.303,-0.303]}]]